timestamp,wind_dir_avg,wind_spd_avg,wind_spd_max_dir,wind_spd_gust,battery_voltage,lat,long
2024-03-29 00:04:00+00:00,208.0,6.93,208.0,7.64,12.25,47.59359,-54.27349
2024-03-29 00:14:00+00:00,214.0,5.5,215.0,5.94,12.17,47.59359,-54.27349
2024-03-29 00:24:00+00:00,212.0,6.13,211.0,7.05,12.17,47.59359,-54.27349
2024-03-29 00:34:00+00:00,203.0,7.14,204.0,7.9,12.17,47.59359,-54.27349
2024-03-29 00:44:00+00:00,212.0,7.03,218.0,8.88,12.17,47.59359,-54.27349
2024-03-29 00:54:00+00:00,207.0,6.7,211.0,7.45,12.17,47.59359,-54.27349
2024-03-29 01:04:00+00:00,211.0,6.84,216.0,8.28,12.17,47.59359,-54.27349
2024-03-29 01:14:00+00:00,216.0,8.82,224.0,10.12,12.17,47.59359,-54.27349
2024-03-29 01:24:00+00:00,214.0,6.92,211.0,8.6,12.17,47.59359,-54.27349
2024-03-29 01:34:00+00:00,210.0,7.86,211.0,8.91,12.17,47.59359,-54.27349
2024-03-29 01:44:00+00:00,216.0,6.15,211.0,7.31,12.17,47.59359,-54.27349
2024-03-29 01:54:00+00:00,212.0,6.78,209.0,8.02,12.17,47.59359,-54.27349
2024-03-29 02:04:00+00:00,216.0,5.86,213.0,7.08,12.17,47.59359,-54.27349
2024-03-29 02:14:01+00:00,213.0,7.53,219.0,8.55,12.17,47.59359,-54.27349
2024-03-29 02:24:01+00:00,218.0,6.51,214.0,7.8,12.17,47.59359,-54.27349
2024-03-29 02:34:01+00:00,200.0,4.17,214.0,5.92,12.17,47.59359,-54.27349
2024-03-29 02:44:01+00:00,208.0,3.59,217.0,4.74,12.17,47.59359,-54.27349
2024-03-29 02:54:01+00:00,191.0,4.85,208.0,5.75,12.17,47.59359,-54.27349
2024-03-29 03:04:01+00:00,215.0,6.17,215.0,6.91,12.17,47.59359,-54.27349
2024-03-29 03:14:01+00:00,215.0,5.75,216.0,6.29,12.17,47.59359,-54.27349
2024-03-29 03:24:01+00:00,194.0,4.42,213.0,5.37,12.17,47.59359,-54.27349
2024-03-29 03:34:01+00:00,315.0,0.01,217.0,0.0,12.17,47.59359,-54.27349
2024-03-29 03:44:01+00:00,185.0,36.38,184.0,44.35,12.17,47.59359,-54.27349
2024-03-29 03:54:01+00:00,214.0,4.9,216.0,5.54,12.17,47.59359,-54.27349
2024-03-29 04:04:01+00:00,214.0,6.8,221.0,7.97,12.17,47.59359,-54.27349
2024-03-29 04:14:00+00:00,217.0,6.85,222.0,7.88,12.09,47.59359,-54.27349
2024-03-29 04:24:00+00:00,219.0,5.95,220.0,6.28,12.09,47.59359,-54.27349
2024-03-29 04:34:00+00:00,223.0,6.84,239.0,9.64,12.09,47.59359,-54.27349
2024-03-29 04:44:00+00:00,220.0,5.65,220.0,6.54,12.09,47.59359,-54.27349
2024-03-29 04:54:00+00:00,212.0,6.76,204.0,8.46,12.09,47.59359,-54.27349
2024-03-29 05:04:00+00:00,215.0,6.41,214.0,7.34,12.09,47.59359,-54.27349
2024-03-29 05:14:00+00:00,212.0,6.2,215.0,7.49,12.09,47.59359,-54.27349
2024-03-29 05:24:00+00:00,207.0,5.82,213.0,7.01,12.09,47.59359,-54.27349
2024-03-29 05:34:00+00:00,219.0,8.56,233.0,10.98,12.09,47.59359,-54.27349
2024-03-29 05:44:00+00:00,216.0,8.12,230.0,10.43,12.09,47.59359,-54.27349
2024-03-29 05:54:00+00:00,211.0,7.18,213.0,8.06,12.09,47.59359,-54.27349
2024-03-29 06:04:00+00:00,220.0,6.82,235.0,9.1,12.09,47.59359,-54.27349
2024-03-29 06:14:00+00:00,210.0,5.25,212.0,6.3,12.09,47.59359,-54.27349
2024-03-29 06:24:00+00:00,214.0,6.39,209.0,7.18,12.09,47.59359,-54.27349
2024-03-29 06:34:00+00:00,215.0,6.19,211.0,7.91,12.09,47.59359,-54.27349
2024-03-29 06:44:00+00:00,215.0,6.05,218.0,6.67,12.09,47.59359,-54.27349
2024-03-29 06:54:00+00:00,335.0,6.61,181.0,37.46,12.09,47.59359,-54.27349
2024-03-29 07:04:00+00:00,213.0,5.56,217.0,5.94,12.09,47.59359,-54.27349
2024-03-29 07:14:01+00:00,214.0,6.08,220.0,6.71,12.01,47.59359,-54.27349
2024-03-29 07:24:01+00:00,218.0,5.84,218.0,6.97,12.01,47.59359,-54.27349
2024-03-29 07:34:01+00:00,207.0,8.04,185.0,37.08,12.01,47.59359,-54.27349
2024-03-29 07:44:01+00:00,214.0,5.84,197.0,11.82,12.01,47.59359,-54.27349
2024-03-29 07:54:01+00:00,211.0,5.75,201.0,9.06,12.01,47.59359,-54.27349
2024-03-29 08:04:01+00:00,210.0,5.29,215.0,5.8,12.01,47.59359,-54.27349
2024-03-29 08:14:00+00:00,224.0,5.7,237.0,7.54,12.01,47.59359,-54.27349
2024-03-29 08:24:00+00:00,224.0,5.97,223.0,6.92,12.01,47.59359,-54.27349
2024-03-29 08:34:00+00:00,218.0,6.2,217.0,7.11,12.01,47.59359,-54.27349
2024-03-29 08:44:00+00:00,230.0,5.53,235.0,6.64,12.01,47.59359,-54.27349
2024-03-29 08:54:00+00:00,221.0,6.19,237.0,8.4,12.01,47.59359,-54.27349
2024-03-29 09:04:00+00:00,226.0,4.11,223.0,4.83,12.01,47.59359,-54.27349
2024-03-29 09:14:00+00:00,218.0,6.21,232.0,7.75,12.01,47.59359,-54.27349
2024-03-29 09:24:00+00:00,215.0,7.93,216.0,8.78,12.01,47.59359,-54.27349
2024-03-29 09:34:00+00:00,217.0,8.9,226.0,10.75,12.01,47.59359,-54.27349
2024-03-29 09:44:00+00:00,209.0,7.51,209.0,8.42,12.01,47.59359,-54.27349
2024-03-29 09:54:00+00:00,209.0,7.78,210.0,8.44,12.01,47.59359,-54.27349
2024-03-29 10:04:00+00:00,214.0,7.14,224.0,9.18,12.01,47.59359,-54.27349
2024-03-29 10:14:01+00:00,221.0,8.56,235.0,10.99,12.01,47.59359,-54.27349
2024-03-29 10:24:01+00:00,208.0,7.47,210.0,8.11,12.01,47.59359,-54.27349
2024-03-29 10:34:01+00:00,215.0,7.15,233.0,9.97,12.01,47.59359,-54.27349
2024-03-29 10:44:01+00:00,216.0,8.18,230.0,11.61,12.01,47.59359,-54.27349
2024-03-29 10:54:01+00:00,213.0,8.12,224.0,9.88,12.01,47.59359,-54.27349
2024-03-29 11:04:01+00:00,224.0,8.59,232.0,11.54,12.01,47.59359,-54.27349
2024-03-29 11:14:00+00:00,222.0,5.76,231.0,6.69,12.49,47.59359,-54.27349
2024-03-29 11:24:00+00:00,220.0,5.85,233.0,7.08,12.49,47.59359,-54.27349
2024-03-29 11:34:00+00:00,218.0,4.98,217.0,5.67,12.49,47.59359,-54.27349
2024-03-29 11:44:00+00:00,227.0,5.09,233.0,6.25,12.49,47.59359,-54.27349
2024-03-29 11:54:00+00:00,227.0,7.29,240.0,10.75,12.49,47.59359,-54.27349
2024-03-29 12:04:00+00:00,222.0,5.97,234.0,7.59,12.49,47.59359,-54.27349
2024-03-29 12:14:00+00:00,225.0,6.8,240.0,10.18,13.05,47.59359,-54.27349
2024-03-29 12:24:00+00:00,227.0,5.19,233.0,5.84,13.05,47.59359,-54.27349
2024-03-29 12:34:00+00:00,224.0,5.76,235.0,7.35,13.05,47.59359,-54.27349
2024-03-29 12:44:00+00:00,220.0,5.1,217.0,6.07,13.05,47.59359,-54.27349
2024-03-29 12:54:00+00:00,225.0,6.35,231.0,7.12,13.05,47.59359,-54.27349
2024-03-29 13:04:00+00:00,217.0,6.88,216.0,8.0,13.05,47.59359,-54.27349
2024-03-29 13:14:00+00:00,224.0,6.75,228.0,7.86,13.44,47.59359,-54.27349
2024-03-29 13:24:00+00:00,226.0,5.57,224.0,6.69,13.44,47.59359,-54.27349
2024-03-29 13:34:00+00:00,223.0,5.86,229.0,7.45,13.44,47.59359,-54.27349
2024-03-29 13:44:00+00:00,217.0,5.83,217.0,6.28,13.44,47.59359,-54.27349
2024-03-29 13:54:00+00:00,222.0,7.09,236.0,9.48,13.44,47.59359,-54.27349
2024-03-29 14:04:00+00:00,223.0,7.34,237.0,10.33,13.44,47.59359,-54.27349
2024-03-29 14:14:01+00:00,228.0,7.8,239.0,9.93,13.53,47.59359,-54.27349
2024-03-29 14:24:01+00:00,226.0,7.33,242.0,9.96,13.53,47.59359,-54.27349
2024-03-29 14:34:01+00:00,222.0,7.58,236.0,9.51,13.53,47.59359,-54.27349
2024-03-29 14:44:01+00:00,235.0,8.41,238.0,10.81,13.53,47.59359,-54.27349
2024-03-29 14:54:01+00:00,224.0,7.08,240.0,10.41,13.53,47.59359,-54.27349
2024-03-29 15:04:01+00:00,220.0,6.76,218.0,7.87,13.53,47.59359,-54.27349
2024-03-29 15:14:00+00:00,207.0,7.24,207.0,7.73,13.6,47.59359,-54.27349
2024-03-29 15:24:00+00:00,206.0,5.77,210.0,6.42,13.6,47.59359,-54.27349
2024-03-29 15:34:00+00:00,208.0,6.58,208.0,7.32,13.6,47.59359,-54.27349
2024-03-29 15:44:00+00:00,206.0,6.1,207.0,7.15,13.6,47.59359,-54.27349
2024-03-29 15:54:00+00:00,206.0,7.41,204.0,8.26,13.6,47.59359,-54.27349
2024-03-29 16:04:00+00:00,208.0,6.77,209.0,7.98,13.6,47.59359,-54.27349
2024-03-29 16:14:00+00:00,210.0,6.8,206.0,7.78,13.53,47.59359,-54.27349
2024-03-29 16:24:00+00:00,212.0,6.27,220.0,8.54,13.53,47.59359,-54.27349
2024-03-29 16:34:00+00:00,218.0,5.34,220.0,6.47,13.53,47.59359,-54.27349
2024-03-29 16:44:00+00:00,221.0,6.22,242.0,9.76,13.53,47.59359,-54.27349
2024-03-29 16:54:00+00:00,219.0,6.11,224.0,8.81,13.53,47.59359,-54.27349
2024-03-29 17:04:00+00:00,211.0,7.11,214.0,8.14,13.53,47.59359,-54.27349
2024-03-29 17:14:00+00:00,212.0,5.47,212.0,6.14,13.53,47.59359,-54.27349
2024-03-29 17:24:00+00:00,207.0,4.86,205.0,5.26,13.53,47.59359,-54.27349
2024-03-29 17:34:00+00:00,205.0,5.81,206.0,6.35,13.53,47.59359,-54.27349
2024-03-29 17:44:00+00:00,206.0,5.67,207.0,6.14,13.53,47.59359,-54.27349
2024-03-29 17:54:00+00:00,315.0,0.01,202.0,0.0,13.53,47.59359,-54.27349
2024-03-29 18:04:00+00:00,194.0,4.78,195.0,4.78,13.53,47.59359,-54.27349
2024-03-29 18:14:00+00:00,197.0,5.33,197.0,5.88,13.53,47.59359,-54.27349
2024-03-29 18:24:00+00:00,315.0,0.01,195.0,0.0,13.53,47.59359,-54.27349
2024-03-29 18:34:00+00:00,204.0,4.53,207.0,4.87,13.53,47.59359,-54.27349
2024-03-29 18:44:00+00:00,205.0,5.09,206.0,5.94,13.53,47.59359,-54.27349
2024-03-29 18:54:00+00:00,198.0,4.36,196.0,4.73,13.53,47.59359,-54.27349
2024-03-29 19:04:00+00:00,205.0,4.28,205.0,4.57,13.53,47.59359,-54.27349
2024-03-29 19:14:00+00:00,196.0,4.14,196.0,4.55,13.53,47.59359,-54.27349
2024-03-29 19:24:00+00:00,315.0,0.01,193.0,0.0,13.53,47.59359,-54.27349
2024-03-29 19:34:00+00:00,196.0,5.36,197.0,5.65,13.53,47.59359,-54.27349
2024-03-29 19:44:00+00:00,200.0,5.24,201.0,5.73,13.53,47.59359,-54.27349
2024-03-29 19:54:00+00:00,198.0,5.43,197.0,5.78,13.53,47.59359,-54.27349
2024-03-29 20:04:00+00:00,315.0,0.01,199.0,0.0,13.53,47.59359,-54.27349
2024-03-29 20:14:00+00:00,315.0,0.01,200.0,0.0,13.37,47.59359,-54.27349
2024-03-29 20:24:00+00:00,200.0,2.35,199.0,2.51,13.37,47.59359,-54.27349
2024-03-29 20:34:00+00:00,235.0,3.65,246.0,6.34,13.37,47.59359,-54.27349
2024-03-29 20:44:00+00:00,315.0,0.01,223.0,0.0,13.37,47.59359,-54.27349
2024-03-29 20:54:00+00:00,315.0,0.01,225.0,0.0,13.37,47.59359,-54.27349
2024-03-29 21:04:00+00:00,315.0,0.01,225.0,0.0,13.37,47.59359,-54.27349
2024-03-29 21:14:00+00:00,315.0,0.01,225.0,0.0,12.97,47.59359,-54.27349
2024-03-29 21:24:00+00:00,315.0,0.01,225.0,0.0,12.97,47.59359,-54.27349
2024-03-29 21:34:00+00:00,315.0,0.01,232.0,0.0,12.97,47.59359,-54.27349
2024-03-29 21:44:00+00:00,315.0,0.01,232.0,0.0,12.97,47.59359,-54.27349
2024-03-29 21:54:00+00:00,315.0,0.01,232.0,0.0,12.97,47.59359,-54.27349
2024-03-29 22:04:00+00:00,315.0,0.01,232.0,0.0,12.97,47.59359,-54.27349
2024-03-29 22:14:00+00:00,315.0,0.01,232.0,0.0,12.41,47.59359,-54.27349
2024-03-29 22:24:00+00:00,315.0,0.01,232.0,0.0,12.41,47.59359,-54.27349
2024-03-29 22:34:00+00:00,315.0,0.01,232.0,0.0,12.41,47.59359,-54.27349
2024-03-29 22:44:00+00:00,315.0,0.01,232.0,0.0,12.41,47.59359,-54.27349
2024-03-29 22:54:00+00:00,315.0,0.01,232.0,0.0,12.41,47.59359,-54.27349
2024-03-29 23:04:00+00:00,315.0,0.01,232.0,0.0,12.41,47.59359,-54.27349
2024-03-29 23:14:00+00:00,315.0,0.01,232.0,0.0,12.25,47.59359,-54.27349
2024-03-29 23:24:00+00:00,315.0,0.01,232.0,0.0,12.25,47.59359,-54.27349
2024-03-29 23:34:00+00:00,315.0,0.01,232.0,0.0,12.25,47.59359,-54.27349
2024-03-29 23:44:00+00:00,315.0,0.01,232.0,0.0,12.25,47.59359,-54.27349
2024-03-29 23:54:00+00:00,315.0,0.01,232.0,0.0,12.25,47.59359,-54.27349
